TimeCST,TemperatureF,Dew PointF,Humidity,Sea Level PressureIn,VisibilityMPH,Wind Direction,Wind SpeedMPH,Gust SpeedMPH,PrecipitationIn,Events,Conditions,WindDirDegrees,DateUTC
12:55 AM,37.2,34.5,90,29.97,10.0,SSE,11.5,-,N/A,,Mostly Cloudy,160,2012-02-15 06:55:00
1:55 AM,37.8,35.2,91,29.97,10.0,SSE,9.2,-,N/A,,Overcast,160,2012-02-15 07:55:00
2:55 AM,37.4,35.6,93,29.97,10.0,SSE,8.1,-,N/A,,Overcast,160,2012-02-15 08:55:00
3:55 AM,37.6,35.8,93,29.97,10.0,SSE,10.4,-,N/A,,Overcast,160,2012-02-15 09:55:00
4:55 AM,37.0,35.4,94,29.98,10.0,SSE,11.5,-,N/A,,Overcast,150,2012-02-15 10:55:00
5:55 AM,36.1,35.6,98,29.97,10.0,SSE,9.2,-,N/A,,Mostly Cloudy,150,2012-02-15 11:55:00
6:06 AM,35.6,35.6,100,29.99,10.0,SSE,9.2,-,N/A,,Mostly Cloudy,160,2012-02-15 12:06:00
6:10 AM,35.6,35.6,100,29.96,10.0,South,6.9,-,N/A,Rain,Light Rain,170,2012-02-15 12:10:00
6:55 AM,36.1,36.0,99,29.96,4.0,SE,16.1,-,0.09,Rain,Light Rain,140,2012-02-15 12:55:00
7:33 AM,37.4,35.6,93,29.95,4.0,SSE,9.2,19.6,N/A,Rain,Light Rain,160,2012-02-15 13:33:00
7:44 AM,37.4,37.4,100,29.96,5.0,SSE,10.4,18.4,N/A,Rain,Light Rain,160,2012-02-15 13:44:00
7:55 AM,37.2,37.0,99,29.96,6.0,South,11.5,-,0.03,Rain,Light Rain,170,2012-02-15 13:55:00
8:34 AM,39.2,39.2,100,30.00,6.0,SSE,5.8,-,N/A,Rain,Light Rain,160,2012-02-15 14:34:00
8:46 AM,39.2,39.2,100,30.01,7.0,South,4.6,-,N/A,,Light Drizzle,180,2012-02-15 14:46:00
8:55 AM,38.8,38.8,100,30.00,8.0,SSE,6.9,-,0.03,Rain,Light Rain,160,2012-02-15 14:55:00
9:16 AM,39.2,39.2,100,30.03,2.5,South,6.9,-,N/A,Rain,Rain,170,2012-02-15 15:16:00
9:18 AM,39.2,39.2,100,30.00,2.5,SSE,6.9,-,N/A,Rain,Rain,160,2012-02-15 15:18:00
9:42 AM,39.2,39.2,100,30.03,3.0,SSE,9.2,-,N/A,Rain,Rain,160,2012-02-15 15:42:00
9:44 AM,39.2,39.2,100,30.02,3.0,SSE,9.2,-,N/A,Rain,Rain,160,2012-02-15 15:44:00
9:55 AM,40.3,40.3,100,30.01,4.0,SSE,9.2,-,0.16,Rain,Light Rain,150,2012-02-15 15:55:00
10:10 AM,41.0,41.0,100,30.00,8.0,SSE,9.2,-,N/A,,Overcast,160,2012-02-15 16:10:00
10:18 AM,41.0,41.0,100,30.00,9.0,SSE,9.2,-,N/A,,Overcast,160,2012-02-15 16:18:00
10:37 AM,41.0,41.0,100,30.00,9.0,SSE,9.2,-,N/A,Rain,Light Rain,160,2012-02-15 16:37:00
10:55 AM,42.4,42.4,100,30.01,6.0,South,6.9,-,0.01,Rain,Light Rain,180,2012-02-15 16:55:00
11:52 AM,42.8,42.8,100,30.00,10.0,South,10.4,-,N/A,,Overcast,180,2012-02-15 17:52:00
11:53 AM,42.8,42.8,100,30.00,10.0,South,9.2,-,N/A,,Light Drizzle,180,2012-02-15 17:53:00
11:55 AM,42.6,42.4,99,30.00,10.0,South,10.4,-,0.01,,Light Drizzle,180,2012-02-15 17:55:00
12:07 PM,42.8,42.8,100,29.99,10.0,SSE,9.2,-,N/A,,Overcast,160,2012-02-15 18:07:00
12:35 PM,42.8,42.8,100,29.97,10.0,SSE,11.5,-,N/A,,Light Drizzle,160,2012-02-15 18:35:00
12:45 PM,42.8,42.8,100,29.97,10.0,SSE,8.1,-,N/A,Rain,Light Rain,160,2012-02-15 18:45:00
12:47 PM,42.8,42.8,100,29.97,10.0,SSE,8.1,-,N/A,Rain,Light Rain,160,2012-02-15 18:47:00
12:55 PM,42.4,42.1,99,29.98,10.0,South,6.9,-,0.00,Rain,Light Rain,180,2012-02-15 18:55:00
1:37 PM,42.8,42.8,100,29.96,9.0,SSE,4.6,-,N/A,Rain,Light Rain,150,2012-02-15 19:37:00
1:50 PM,42.8,42.8,100,29.94,8.0,SE,5.8,-,N/A,Rain,Light Rain,140,2012-02-15 19:50:00
1:55 PM,43.2,43.2,100,29.94,10.0,SSE,6.9,-,0.02,,Light Drizzle,150,2012-02-15 19:55:00
1:56 PM,42.8,42.8,100,29.94,10.0,SSE,6.9,-,N/A,,Overcast,150,2012-02-15 19:56:00
2:01 PM,42.8,42.8,100,29.94,10.0,SSE,5.8,-,N/A,,Overcast,150,2012-02-15 20:01:00
2:22 PM,42.8,42.8,100,29.94,10.0,SSE,5.8,-,N/A,,Overcast,160,2012-02-15 20:22:00
2:41 PM,44.6,44.6,100,29.94,10.0,SSE,6.9,-,N/A,,Light Drizzle,150,2012-02-15 20:41:00
2:55 PM,44.6,44.6,100,29.94,10.0,SSE,5.8,-,0.00,,Overcast,160,2012-02-15 20:55:00
3:06 PM,44.6,44.6,100,29.94,10.0,SSE,5.8,-,N/A,,Overcast,150,2012-02-15 21:06:00
3:11 PM,44.6,44.6,100,29.94,10.0,SSE,6.9,-,N/A,,Light Drizzle,150,2012-02-15 21:11:00
3:21 PM,44.6,44.6,100,29.94,10.0,SE,4.6,-,N/A,,Overcast,140,2012-02-15 21:21:00
3:26 PM,44.6,44.6,100,29.93,10.0,SE,5.8,-,N/A,Rain,Light Rain,130,2012-02-15 21:26:00
3:35 PM,44.6,44.6,100,29.92,10.0,SSE,9.2,-,N/A,Rain,Light Rain,150,2012-02-15 21:35:00
3:36 PM,44.6,44.6,100,29.92,10.0,SSE,10.4,-,N/A,,Overcast,150,2012-02-15 21:36:00
3:38 PM,44.6,44.6,100,29.93,10.0,SSE,11.5,-,N/A,Rain,Light Rain,150,2012-02-15 21:38:00
3:48 PM,46.4,46.4,100,29.92,10.0,SSE,9.2,-,N/A,,Overcast,150,2012-02-15 21:48:00
3:55 PM,45.7,45.7,100,29.91,10.0,SSE,13.8,-,0.00,,Overcast,150,2012-02-15 21:55:00
4:16 PM,44.6,44.6,100,29.88,10.0,SSE,13.8,-,N/A,,Overcast,150,2012-02-15 22:16:00
4:27 PM,44.6,44.6,100,29.88,10.0,SSE,12.7,24.2,N/A,,Overcast,150,2012-02-15 22:27:00
4:55 PM,44.8,44.8,100,29.89,10.0,SSE,11.5,-,0.00,,Overcast,160,2012-02-15 22:55:00
5:36 PM,44.6,44.6,100,29.90,10.0,SSE,11.5,-,N/A,,Overcast,160,2012-02-15 23:36:00
5:55 PM,43.9,43.9,100,29.91,10.0,South,8.1,-,N/A,,Overcast,170,2012-02-15 23:55:00
6:07 PM,44.6,44.6,100,29.91,10.0,SSE,9.2,-,N/A,,Overcast,160,2012-02-16 00:07:00
6:55 PM,43.5,43.5,100,29.93,10.0,South,10.4,-,N/A,,Overcast,180,2012-02-16 00:55:00
7:02 PM,42.8,42.8,100,29.95,10.0,Variable,3.5,-,N/A,,Overcast,0,2012-02-16 01:02:00
7:31 PM,42.8,42.8,100,29.96,10.0,Variable,4.6,-,N/A,,Light Drizzle,0,2012-02-16 01:31:00
7:46 PM,42.8,42.8,100,29.94,10.0,SSE,5.8,-,N/A,,Light Drizzle,160,2012-02-16 01:46:00
7:55 PM,43.3,43.3,100,29.94,10.0,Calm,Calm,-,0.00,,Light Drizzle,0,2012-02-16 01:55:00
7:56 PM,42.8,42.8,100,29.94,10.0,Calm,Calm,-,N/A,,Overcast,0,2012-02-16 01:56:00
7:59 PM,42.8,42.8,100,29.94,10.0,Calm,Calm,-,N/A,,Overcast,0,2012-02-16 01:59:00
8:18 PM,42.8,42.8,100,29.99,10.0,WSW,6.9,-,N/A,,Overcast,240,2012-02-16 02:18:00
8:20 PM,42.8,42.8,100,29.99,10.0,WSW,5.8,-,N/A,,Overcast,250,2012-02-16 02:20:00
8:30 PM,42.8,42.8,100,29.98,10.0,Variable,5.8,-,N/A,,Light Drizzle,0,2012-02-16 02:30:00
8:38 PM,42.8,42.8,100,29.95,6.0,Variable,3.5,-,N/A,Rain,Light Rain,0,2012-02-16 02:38:00
8:39 PM,42.8,42.8,100,29.94,5.0,SE,4.6,-,N/A,Rain,Light Rain,130,2012-02-16 02:39:00
8:55 PM,43.0,43.0,100,29.96,6.0,Calm,Calm,-,0.04,Rain,Light Rain,0,2012-02-16 02:55:00
9:00 PM,42.8,42.8,100,29.96,9.0,SW,3.5,-,N/A,,Overcast,230,2012-02-16 03:00:00
9:01 PM,42.8,42.8,100,29.96,9.0,SW,3.5,-,N/A,,Overcast,230,2012-02-16 03:01:00
9:02 PM,42.8,42.8,100,29.96,9.0,Calm,Calm,-,N/A,,Overcast,0,2012-02-16 03:02:00
9:16 PM,42.8,42.8,100,29.97,10.0,South,4.6,-,N/A,,Overcast,180,2012-02-16 03:16:00
9:17 PM,42.8,42.8,100,29.97,10.0,South,3.5,-,N/A,,Overcast,170,2012-02-16 03:17:00
9:18 PM,42.8,42.8,100,29.96,10.0,South,3.5,-,N/A,Rain,Light Rain,180,2012-02-16 03:18:00
9:22 PM,42.8,42.8,100,29.97,10.0,Variable,3.5,-,N/A,Rain,Light Rain,0,2012-02-16 03:22:00
9:55 PM,42.6,42.6,100,29.96,10.0,SSE,5.8,-,0.01,,Overcast,160,2012-02-16 03:55:00
10:38 PM,42.8,42.8,100,29.97,10.0,Variable,4.6,-,N/A,,Light Drizzle,0,2012-02-16 04:38:00
10:53 PM,42.8,42.8,100,29.98,10.0,SW,4.6,-,N/A,,Overcast,220,2012-02-16 04:53:00
10:55 PM,43.0,43.0,100,29.98,10.0,SW,4.6,-,0.00,,Light Drizzle,220,2012-02-16 04:55:00
11:06 PM,42.8,42.8,100,29.98,10.0,SSW,4.6,-,N/A,,Overcast,210,2012-02-16 05:06:00
11:39 PM,42.8,42.8,100,29.99,9.0,SW,4.6,-,N/A,,Overcast,230,2012-02-16 05:39:00
11:53 PM,42.8,42.8,100,29.99,10.0,WSW,5.8,-,N/A,,Overcast,240,2012-02-16 05:53:00
11:55 PM,43.0,43.0,100,29.99,10.0,WSW,5.8,-,0.00,,Overcast,240,2012-02-16 05:55:00